Time,TemperatureF,DewpointF,PressureIn,WindDirection,WindDirectionDegrees,WindSpeedMPH,WindSpeedGustMPH,Humidity,HourlyPrecipIn,Conditions,Clouds,dailyrainin,SoftwareType,DateUTC
2013-01-17 00:15:00,45.1,44.0,29.98,ESE,116,0.0,0.0,97,0.00,,,0.00,weatherlink.com 1.10,2013-01-17 05:15:00,
2013-01-17 00:30:00,45.1,44.0,29.98,ESE,116,0.0,0.0,97,0.00,,,0.00,weatherlink.com 1.10,2013-01-17 05:30:00,
2013-01-17 00:45:00,45.1,44.0,30.00,ESE,116,0.0,0.0,97,0.00,,,0.00,weatherlink.com 1.10,2013-01-17 05:45:00,
2013-01-17 01:00:00,45.1,44.0,30.00,ESE,116,0.0,0.0,97,0.00,,,0.00,weatherlink.com 1.10,2013-01-17 06:00:00,
2013-01-17 01:15:00,45.1,44.0,30.00,ESE,116,0.0,0.0,97,0.00,,,0.00,weatherlink.com 1.10,2013-01-17 06:15:00,
2013-01-17 01:30:00,45.1,44.0,29.99,ESE,116,0.0,0.0,97,0.01,,,0.01,weatherlink.com 1.10,2013-01-17 06:30:00,
2013-01-17 01:45:00,45.1,44.0,30.00,ESE,116,0.0,0.0,97,0.01,,,0.01,weatherlink.com 1.10,2013-01-17 06:45:00,
2013-01-17 02:00:00,45.2,44.0,30.00,ESE,116,0.0,0.0,97,0.01,,,0.01,weatherlink.com 1.10,2013-01-17 07:00:00,
2013-01-17 02:15:00,45.2,44.0,30.00,ESE,117,0.0,0.0,97,0.02,,,0.02,weatherlink.com 1.10,2013-01-17 07:15:00,
2013-01-17 02:30:00,45.2,44.0,30.00,ESE,117,0.0,0.0,97,0.03,,,0.04,weatherlink.com 1.10,2013-01-17 07:30:00,
2013-01-17 02:45:00,45.2,44.0,29.98,ESE,117,0.0,0.0,97,0.03,,,0.04,weatherlink.com 1.10,2013-01-17 07:45:00,
2013-01-17 03:00:00,45.1,44.0,30.00,ESE,117,0.0,0.0,97,0.04,,,0.05,weatherlink.com 1.10,2013-01-17 08:00:00,
2013-01-17 03:15:00,45.2,44.0,30.00,ESE,117,0.0,0.0,97,0.05,,,0.07,weatherlink.com 1.10,2013-01-17 08:15:00,
2013-01-17 03:30:00,45.2,44.0,29.98,SE,132,0.0,0.0,97,0.04,,,0.08,weatherlink.com 1.10,2013-01-17 08:30:00,
2013-01-17 03:45:00,45.3,45.0,29.99,South,171,0.0,0.0,97,0.04,,,0.08,weatherlink.com 1.10,2013-01-17 08:45:00,
2013-01-17 04:00:00,45.3,45.0,29.98,SSE,150,0.0,0.0,97,0.04,,,0.09,weatherlink.com 1.10,2013-01-17 09:00:00,
2013-01-17 04:15:00,45.4,45.0,29.99,South,180,0.0,0.0,97,0.02,,,0.09,weatherlink.com 1.10,2013-01-17 09:15:00,
2013-01-17 04:30:00,45.5,45.0,30.00,South,180,0.0,0.0,97,0.02,,,0.10,weatherlink.com 1.10,2013-01-17 09:30:00,
2013-01-17 04:45:00,45.5,45.0,30.00,South,180,0.0,0.0,97,0.03,,,0.11,weatherlink.com 1.10,2013-01-17 09:45:00,
2013-01-17 05:00:00,45.5,45.0,29.99,South,180,0.0,0.0,97,0.03,,,0.12,weatherlink.com 1.10,2013-01-17 10:00:00,
2013-01-17 05:15:00,45.5,45.0,30.00,South,180,0.0,0.0,97,0.04,,,0.13,weatherlink.com 1.10,2013-01-17 10:15:00,
2013-01-17 05:30:00,45.5,45.0,30.00,South,180,0.0,0.0,97,0.05,,,0.15,weatherlink.com 1.10,2013-01-17 10:30:00,
2013-01-17 05:45:00,45.5,45.0,30.00,NE,49,0.0,0.0,97,0.05,,,0.17,weatherlink.com 1.10,2013-01-17 10:45:00,
2013-01-17 06:00:00,45.4,45.0,30.01,NE,40,0.0,0.0,97,0.07,,,0.19,weatherlink.com 1.10,2013-01-17 11:00:00,
2013-01-17 06:15:00,45.4,45.0,30.00,NE,40,0.0,0.0,97,0.08,,,0.21,weatherlink.com 1.10,2013-01-17 11:15:00,
2013-01-17 06:30:00,45.4,45.0,30.00,NE,40,0.0,0.0,97,0.08,,,0.23,weatherlink.com 1.10,2013-01-17 11:30:00,
2013-01-17 06:45:00,45.4,45.0,30.01,NE,41,0.0,0.0,97,0.07,,,0.24,weatherlink.com 1.10,2013-01-17 11:45:00,
2013-01-17 07:00:00,45.4,45.0,30.01,NE,41,0.0,0.0,98,0.05,,,0.24,weatherlink.com 1.10,2013-01-17 12:00:00,
2013-01-17 07:15:00,45.4,45.0,30.02,NE,41,0.0,0.0,97,0.02,,,0.24,weatherlink.com 1.10,2013-01-17 12:15:00,
2013-01-17 07:30:00,45.4,45.0,30.03,NE,40,0.0,0.0,98,0.01,,,0.24,weatherlink.com 1.10,2013-01-17 12:30:00,
2013-01-17 07:45:00,45.4,45.0,30.02,NE,40,0.0,0.0,98,0.02,,,0.26,weatherlink.com 1.10,2013-01-17 12:45:00,
2013-01-17 08:00:00,45.5,45.0,30.03,NE,40,0.0,0.0,98,0.04,,,0.28,weatherlink.com 1.10,2013-01-17 13:00:00,
2013-01-17 08:15:00,45.5,45.0,30.04,NE,40,0.0,0.0,98,0.05,,,0.29,weatherlink.com 1.10,2013-01-17 13:15:00,
2013-01-17 08:30:00,45.6,45.0,30.05,NE,40,0.0,0.0,98,0.06,,,0.30,weatherlink.com 1.10,2013-01-17 13:30:00,
2013-01-17 08:45:00,45.7,45.0,30.07,NNE,24,0.0,0.0,98,0.07,,,0.33,weatherlink.com 1.10,2013-01-17 13:45:00,
2013-01-17 09:00:00,45.8,45.0,30.07,NNE,26,0.0,0.0,98,0.06,,,0.35,weatherlink.com 1.10,2013-01-17 14:00:00,
2013-01-17 09:15:00,45.8,45.0,30.07,NNE,30,0.0,0.0,98,0.07,,,0.36,weatherlink.com 1.10,2013-01-17 14:15:00,
2013-01-17 09:30:00,45.9,45.0,30.07,ENE,67,0.0,0.0,98,0.08,,,0.38,weatherlink.com 1.10,2013-01-17 14:30:00,
2013-01-17 09:45:00,46.0,46.0,30.07,East,80,0.0,0.0,98,0.06,,,0.39,weatherlink.com 1.10,2013-01-17 14:45:00,
2013-01-17 10:00:00,46.0,46.0,30.07,ENE,61,0.0,0.0,98,0.05,,,0.40,weatherlink.com 1.10,2013-01-17 15:00:00,
2013-01-17 10:15:00,46.1,46.0,30.07,NE,51,0.0,0.0,98,0.04,,,0.41,weatherlink.com 1.10,2013-01-17 15:15:00,
2013-01-17 10:30:00,46.3,46.0,30.07,NE,39,0.0,0.0,98,0.05,,,0.43,weatherlink.com 1.10,2013-01-17 15:30:00,
2013-01-17 10:45:00,46.2,46.0,30.07,NE,55,0.0,0.0,98,0.06,,,0.45,weatherlink.com 1.10,2013-01-17 15:45:00,
2013-01-17 11:00:00,46.2,46.0,30.07,ENE,65,0.0,0.0,98,0.07,,,0.47,weatherlink.com 1.10,2013-01-17 16:00:00,
2013-01-17 11:15:00,45.9,45.0,30.06,East,85,2.0,12.0,97,0.10,,,0.51,weatherlink.com 1.10,2013-01-17 16:15:00,
2013-01-17 11:30:00,45.9,45.0,30.05,ESE,111,4.0,10.0,97,0.10,,,0.53,weatherlink.com 1.10,2013-01-17 16:30:00,
2013-01-17 11:45:00,45.8,45.0,30.05,East,87,1.0,2.0,97,0.11,,,0.56,weatherlink.com 1.10,2013-01-17 16:45:00,
2013-01-17 12:00:00,45.8,45.0,30.04,ENE,60,0.0,2.0,97,0.11,,,0.59,weatherlink.com 1.10,2013-01-17 17:00:00,
2013-01-17 12:15:00,45.8,45.0,30.02,East,94,0.0,3.0,97,0.11,,,0.62,weatherlink.com 1.10,2013-01-17 17:15:00,
2013-01-17 12:30:00,45.5,45.0,30.02,ENE,74,1.0,3.0,97,0.10,,,0.63,weatherlink.com 1.10,2013-01-17 17:30:00,
2013-01-17 13:01:00,45.3,45.0,30.01,ENE,66,0.0,6.0,97,0.08,,,0.67,weatherlink.com 1.10,2013-01-17 18:01:00,
2013-01-17 13:16:00,44.7,44.0,30.01,ENE,66,3.0,12.0,96,0.05,,,0.67,weatherlink.com 1.10,2013-01-17 18:16:00,
2013-01-17 13:31:00,44.1,43.0,30.02,East,92,8.0,14.0,96,0.05,,,0.68,weatherlink.com 1.10,2013-01-17 18:31:00,
2013-01-17 13:46:00,43.1,42.0,30.04,East,84,3.0,13.0,96,0.04,,,0.69,weatherlink.com 1.10,2013-01-17 18:46:00,
2013-01-17 14:01:00,42.7,42.0,30.03,ENE,68,4.0,14.0,96,0.05,,,0.72,weatherlink.com 1.10,2013-01-17 19:01:00,
2013-01-17 14:16:00,42.6,42.0,30.02,ENE,63,7.0,12.0,96,0.08,,,0.75,weatherlink.com 1.10,2013-01-17 19:16:00,
2013-01-17 14:31:00,40.8,40.0,30.03,NE,44,14.0,23.0,95,0.09,,,0.77,weatherlink.com 1.10,2013-01-17 19:31:00,
2013-01-17 14:46:00,40.0,39.0,30.03,NE,36,9.0,13.0,95,0.12,,,0.81,weatherlink.com 1.10,2013-01-17 19:46:00,
2013-01-17 15:01:00,38.9,38.0,30.02,NE,46,9.0,19.0,95,0.11,,,0.83,weatherlink.com 1.10,2013-01-17 20:01:00,
2013-01-17 15:16:00,38.5,37.0,30.02,ENE,67,9.0,23.0,95,0.10,,,0.85,weatherlink.com 1.10,2013-01-17 20:16:00,
2013-01-17 15:31:00,38.6,38.0,30.03,ENE,58,4.0,11.0,96,0.08,,,0.85,weatherlink.com 1.10,2013-01-17 20:31:00,
2013-01-17 15:46:00,38.5,38.0,30.05,NE,44,3.0,11.0,96,0.05,,,0.86,weatherlink.com 1.10,2013-01-17 20:46:00,
2013-01-17 16:01:00,38.5,38.0,30.07,NNE,24,8.0,12.0,96,0.05,,,0.88,weatherlink.com 1.10,2013-01-17 21:01:00,
2013-01-17 16:16:00,38.6,38.0,30.06,NE,45,8.0,15.0,96,0.04,,,0.89,weatherlink.com 1.10,2013-01-17 21:16:00,
2013-01-17 16:31:00,38.4,37.0,30.05,NNE,31,4.0,12.0,96,0.05,,,0.90,weatherlink.com 1.10,2013-01-17 21:31:00,
2013-01-17 16:46:00,38.2,37.0,30.05,NE,53,2.0,10.0,96,0.05,,,0.91,weatherlink.com 1.10,2013-01-17 21:46:00,
2013-01-17 17:01:00,38.1,37.0,30.05,NE,51,8.0,12.0,96,0.04,,,0.92,weatherlink.com 1.10,2013-01-17 22:01:00,
2013-01-17 17:16:00,37.9,37.0,30.05,NNE,25,2.0,13.0,96,0.05,,,0.94,weatherlink.com 1.10,2013-01-17 22:16:00,
2013-01-17 17:31:00,37.8,37.0,30.07,NNE,17,2.0,13.0,96,0.05,,,0.95,weatherlink.com 1.10,2013-01-17 22:31:00,
2013-01-17 17:46:00,37.6,37.0,30.08,NNE,32,3.0,12.0,96,0.06,,,0.97,weatherlink.com 1.10,2013-01-17 22:46:00,
2013-01-17 18:01:00,37.1,36.0,30.06,NE,38,7.0,9.0,96,0.08,,,1.00,weatherlink.com 1.10,2013-01-17 23:01:00,
2013-01-17 18:16:00,35.4,34.0,30.08,NNW,339,2.0,12.0,95,0.08,,,1.02,weatherlink.com 1.10,2013-01-17 23:16:00,
2013-01-17 18:31:00,34.5,33.0,30.09,ENE,57,3.0,11.0,95,0.09,,,1.04,weatherlink.com 1.10,2013-01-17 23:31:00,
2013-01-17 18:46:00,33.4,32.0,30.07,NE,36,3.0,10.0,95,0.07,,,1.04,weatherlink.com 1.10,2013-01-17 23:46:00,
2013-01-17 19:01:00,33.0,32.0,30.10,NNE,12,2.0,5.0,96,0.04,,,1.04,weatherlink.com 1.10,2013-01-18 00:01:00,
2013-01-17 19:16:00,32.8,32.0,30.10,NNW,329,0.0,0.0,96,0.02,,,1.04,weatherlink.com 1.10,2013-01-18 00:16:00,
2013-01-17 19:31:00,32.7,32.0,30.04,NE,36,0.0,0.0,96,0.06,,,1.10,weatherlink.com 1.10,2013-01-18 00:31:00,
2013-01-17 19:47:00,32.8,32.0,30.04,NNE,30,0.0,0.0,96,0.13,,,1.17,weatherlink.com 1.10,2013-01-18 00:47:00,
2013-01-17 20:01:00,32.8,32.0,30.07,North,5,0.0,0.0,96,0.16,,,1.20,weatherlink.com 1.10,2013-01-18 01:01:00,
2013-01-17 20:16:00,32.7,32.0,30.07,North,5,0.0,0.0,96,0.20,,,1.25,weatherlink.com 1.10,2013-01-18 01:16:00,
2013-01-17 20:31:00,32.7,32.0,30.07,NNE,13,0.0,0.0,97,0.16,,,1.27,weatherlink.com 1.10,2013-01-18 01:31:00,
2013-01-17 20:47:00,32.6,32.0,30.04,NNE,13,0.0,0.0,97,0.13,,,1.30,weatherlink.com 1.10,2013-01-18 01:47:00,
2013-01-17 21:17:00,32.7,32.0,30.05,NNE,24,0.0,0.0,97,0.14,,,1.39,weatherlink.com 1.10,2013-01-18 02:17:00,
2013-01-17 21:32:00,32.6,32.0,30.07,NNE,19,0.0,0.0,97,0.14,,,1.42,weatherlink.com 1.10,2013-01-18 02:32:00,
2013-01-17 21:47:00,32.6,32.0,30.06,NNE,19,0.0,0.0,97,0.15,,,1.45,weatherlink.com 1.10,2013-01-18 02:47:00,
2013-01-17 22:02:00,32.5,32.0,30.04,North,11,0.0,0.0,97,0.13,,,1.47,weatherlink.com 1.10,2013-01-18 03:02:00,
2013-01-17 22:17:00,32.5,32.0,30.08,NW,319,0.0,0.0,97,0.12,,,1.51,weatherlink.com 1.10,2013-01-18 03:17:00,
2013-01-17 22:32:00,32.5,32.0,30.06,North,5,0.0,0.0,97,0.12,,,1.54,weatherlink.com 1.10,2013-01-18 03:32:00,
2013-01-17 22:47:00,32.5,32.0,30.04,NNE,28,0.0,0.0,97,0.11,,,1.56,weatherlink.com 1.10,2013-01-18 03:47:00,
2013-01-17 23:02:00,32.6,32.0,30.02,NE,42,0.0,0.0,97,0.12,,,1.59,weatherlink.com 1.10,2013-01-18 04:02:00,
2013-01-17 23:17:00,32.7,32.0,30.06,North,5,0.0,0.0,97,0.10,,,1.61,weatherlink.com 1.10,2013-01-18 04:17:00,
2013-01-17 23:47:00,32.5,32.0,30.06,North,5,0.0,0.0,97,0.06,,,1.63,weatherlink.com 1.10,2013-01-18 04:47:00,